Time,TemperatureF,DewpointF,PressureIn,WindDirection,WindDirectionDegrees,WindSpeedMPH,WindSpeedGustMPH,Humidity,HourlyPrecipIn,Conditions,Clouds,dailyrainin,SoftwareType,DateUTC
2014-02-28 00:05:00,-3.8,-13.4,30.07,WNW,292,0.0,0.0,63,0.00,,,-99.99,open2300 version1.11,2014-02-28 05:05:00,
2014-02-28 00:10:00,-4.2,-13.7,30.07,WNW,292,0.0,0.0,63,0.00,,,-99.99,open2300 version1.11,2014-02-28 05:10:00,
2014-02-28 00:15:00,-4.2,-13.7,30.07,WNW,292,0.0,0.0,63,0.00,,,-99.99,open2300 version1.11,2014-02-28 05:15:00,
2014-02-28 00:20:00,-4.4,-13.6,30.07,WNW,292,0.0,0.0,64,0.00,,,-99.99,open2300 version1.11,2014-02-28 05:20:00,
2014-02-28 00:25:00,-4.4,-13.6,30.07,WNW,292,0.0,0.0,64,0.00,,,-99.99,open2300 version1.11,2014-02-28 05:25:00,
2014-02-28 00:30:00,-4.4,-13.6,30.07,WNW,292,0.0,0.0,64,0.00,,,-99.99,open2300 version1.11,2014-02-28 05:30:00,
2014-02-28 00:35:00,-4.4,-13.6,30.07,WNW,292,0.0,0.0,64,0.00,,,-99.99,open2300 version1.11,2014-02-28 05:35:00,
2014-02-28 00:40:00,-4.7,-13.9,30.07,WNW,292,0.0,0.0,64,0.00,,,-99.99,open2300 version1.11,2014-02-28 05:40:00,
2014-02-28 00:45:00,-4.5,-13.8,30.08,WNW,292,0.0,0.0,64,0.00,,,-99.99,open2300 version1.11,2014-02-28 05:45:00,
2014-02-28 00:50:00,-4.7,-13.9,30.07,WNW,292,0.0,0.0,64,0.00,,,-99.99,open2300 version1.11,2014-02-28 05:50:00,
2014-02-28 00:55:00,-4.7,-13.9,30.08,WNW,292,0.0,0.0,64,0.00,,,-99.99,open2300 version1.11,2014-02-28 05:55:00,
2014-02-28 01:00:00,-4.7,-13.9,30.08,WNW,292,0.0,0.0,64,0.00,,,-99.99,open2300 version1.11,2014-02-28 06:00:00,
2014-02-28 01:10:00,-4.7,-13.9,30.08,WNW,292,0.0,0.0,64,0.00,,,-99.99,open2300 version1.11,2014-02-28 06:10:00,
2014-02-28 01:15:00,-5.1,-14.3,30.08,WNW,292,0.0,0.0,64,0.00,,,-99.99,open2300 version1.11,2014-02-28 06:15:00,
2014-02-28 01:20:00,-5.3,-14.5,30.08,WNW,292,0.0,0.0,64,0.00,,,-99.99,open2300 version1.11,2014-02-28 06:20:00,
2014-02-28 01:30:00,-5.3,-14.5,30.08,WNW,292,0.0,0.0,64,0.00,,,-99.99,open2300 version1.11,2014-02-28 06:30:00,
2014-02-28 01:35:00,-5.4,-14.7,30.08,WNW,292,0.0,0.0,64,0.00,,,-99.99,open2300 version1.11,2014-02-28 06:35:00,
2014-02-28 01:40:00,-6.0,-15.2,30.09,WNW,292,0.0,0.0,64,0.00,,,-99.99,open2300 version1.11,2014-02-28 06:40:00,
2014-02-28 01:50:00,-6.2,-15.3,30.09,WNW,292,0.0,0.0,64,0.00,,,-99.99,open2300 version1.11,2014-02-28 06:50:00,
2014-02-28 02:00:00,-6.5,-15.4,30.09,WNW,292,0.0,0.0,65,0.00,,,-99.99,open2300 version1.11,2014-02-28 07:00:00,
2014-02-28 02:10:00,-6.7,-15.5,30.09,WNW,292,0.0,0.0,65,0.00,,,-99.99,open2300 version1.11,2014-02-28 07:10:00,
2014-02-28 02:15:00,-6.7,-15.5,30.09,WNW,292,0.0,0.0,65,0.00,,,-99.99,open2300 version1.11,2014-02-28 07:15:00,
2014-02-28 02:20:00,-6.7,-15.5,30.09,WNW,292,0.0,0.0,65,0.00,,,-99.99,open2300 version1.11,2014-02-28 07:20:00,
2014-02-28 02:30:00,-6.9,-15.7,30.09,WNW,292,0.0,0.0,65,0.00,,,-99.99,open2300 version1.11,2014-02-28 07:30:00,
2014-02-28 02:40:00,-6.9,-15.7,30.10,WNW,292,0.0,0.0,65,0.00,,,-99.99,open2300 version1.11,2014-02-28 07:40:00,
2014-02-28 02:45:00,-6.9,-15.7,30.10,WNW,292,0.0,0.0,65,0.00,,,-99.99,open2300 version1.11,2014-02-28 07:45:00,
2014-02-28 02:50:00,-6.9,-15.7,30.10,WNW,292,0.0,0.0,65,0.00,,,-99.99,open2300 version1.11,2014-02-28 07:50:00,
2014-02-28 02:55:00,-7.1,-15.8,30.09,WNW,292,0.0,0.0,65,0.00,,,-99.99,open2300 version1.11,2014-02-28 07:55:00,
2014-02-28 03:00:00,-7.1,-15.5,30.09,WNW,292,0.0,0.0,66,0.00,,,-99.99,open2300 version1.11,2014-02-28 08:00:00,
2014-02-28 03:05:00,-7.1,-15.5,30.09,WNW,292,0.0,0.0,66,0.00,,,-99.99,open2300 version1.11,2014-02-28 08:05:00,
2014-02-28 03:10:00,-7.1,-15.5,30.09,WNW,292,0.0,0.0,66,0.00,,,-99.99,open2300 version1.11,2014-02-28 08:10:00,
2014-02-28 03:15:00,-7.2,-15.7,30.09,WNW,292,0.0,0.0,66,0.00,,,-99.99,open2300 version1.11,2014-02-28 08:15:00,
2014-02-28 03:25:00,-7.4,-15.9,30.09,WNW,292,0.0,0.0,66,0.00,,,-99.99,open2300 version1.11,2014-02-28 08:25:00,
2014-02-28 03:30:00,-7.6,-16.0,30.10,WNW,292,0.0,0.0,66,0.00,,,-99.99,open2300 version1.11,2014-02-28 08:30:00,
2014-02-28 03:35:00,-7.6,-16.0,30.10,WNW,292,0.0,0.0,66,0.00,,,-99.99,open2300 version1.11,2014-02-28 08:35:00,
2014-02-28 03:40:00,-7.4,-15.9,30.10,WNW,292,0.0,0.0,66,0.00,,,-99.99,open2300 version1.11,2014-02-28 08:40:00,
2014-02-28 03:45:00,-7.8,-16.2,30.10,WNW,292,0.0,0.0,66,0.00,,,-99.99,open2300 version1.11,2014-02-28 08:45:00,
2014-02-28 03:55:00,-7.8,-16.2,30.10,WNW,292,0.0,0.0,66,0.00,,,-99.99,open2300 version1.11,2014-02-28 08:55:00,
2014-02-28 04:00:00,-8.0,-16.4,30.10,WNW,292,0.0,0.0,66,0.00,,,-99.99,open2300 version1.11,2014-02-28 09:00:00,
2014-02-28 04:10:00,-8.0,-16.4,30.10,WNW,292,0.0,0.0,66,0.00,,,-99.99,open2300 version1.11,2014-02-28 09:10:00,
2014-02-28 04:15:00,-8.0,-16.4,30.10,WNW,292,0.0,0.0,66,0.00,,,-99.99,open2300 version1.11,2014-02-28 09:15:00,
2014-02-28 04:20:00,-8.0,-16.4,30.11,WNW,292,0.0,0.0,66,0.00,,,-99.99,open2300 version1.11,2014-02-28 09:20:00,
2014-02-28 04:25:00,-8.0,-16.4,30.11,WNW,292,0.0,0.0,66,0.00,,,-99.99,open2300 version1.11,2014-02-28 09:25:00,
2014-02-28 04:30:00,-7.8,-16.2,30.11,WNW,292,0.0,0.0,66,0.00,,,-99.99,open2300 version1.11,2014-02-28 09:30:00,
2014-02-28 04:40:00,-7.8,-16.2,30.11,WNW,292,0.0,0.0,66,0.00,,,-99.99,open2300 version1.11,2014-02-28 09:40:00,
2014-02-28 04:45:00,-7.8,-16.2,30.11,WNW,292,0.0,0.0,66,0.00,,,-99.99,open2300 version1.11,2014-02-28 09:45:00,
2014-02-28 04:50:00,-7.8,-16.2,30.11,WNW,292,0.0,0.0,66,0.00,,,-99.99,open2300 version1.11,2014-02-28 09:50:00,
2014-02-28 04:55:00,-7.8,-16.2,30.11,WNW,292,0.0,0.0,66,0.00,,,-99.99,open2300 version1.11,2014-02-28 09:55:00,
2014-02-28 05:00:00,-7.4,-15.6,30.11,WNW,292,0.0,0.0,67,0.00,,,-99.99,open2300 version1.11,2014-02-28 10:00:00,
2014-02-28 05:05:00,-7.4,-15.6,30.12,WNW,292,0.0,0.0,67,0.00,,,-99.99,open2300 version1.11,2014-02-28 10:05:00,
2014-02-28 05:10:00,-7.4,-15.9,30.12,WNW,292,0.0,0.0,66,0.00,,,-99.99,open2300 version1.11,2014-02-28 10:10:00,
2014-02-28 05:15:00,-7.8,-16.2,30.11,WNW,292,0.0,0.0,66,0.00,,,-99.99,open2300 version1.11,2014-02-28 10:15:00,
2014-02-28 05:20:00,-7.8,-16.2,30.12,WNW,292,0.0,0.0,66,0.00,,,-99.99,open2300 version1.11,2014-02-28 10:20:00,
2014-02-28 05:25:00,-7.8,-16.2,30.12,WNW,292,0.0,0.0,66,0.00,,,-99.99,open2300 version1.11,2014-02-28 10:25:00,
2014-02-28 05:30:00,-7.8,-16.2,30.13,WNW,292,0.0,0.0,66,0.00,,,-99.99,open2300 version1.11,2014-02-28 10:30:00,
2014-02-28 05:40:00,-7.8,-15.9,30.13,WNW,292,0.0,0.0,67,0.00,,,-99.99,open2300 version1.11,2014-02-28 10:40:00,
2014-02-28 05:45:00,-7.8,-15.9,30.12,WNW,292,0.0,0.0,67,0.00,,,-99.99,open2300 version1.11,2014-02-28 10:45:00,
2014-02-28 05:50:00,-7.8,-15.9,30.12,WNW,292,0.0,0.0,67,0.00,,,-99.99,open2300 version1.11,2014-02-28 10:50:00,
2014-02-28 05:55:00,-7.8,-15.9,30.13,WNW,292,0.0,0.0,67,0.00,,,-99.99,open2300 version1.11,2014-02-28 10:55:00,
2014-02-28 06:00:00,-7.8,-15.9,30.13,WNW,292,0.0,0.0,67,0.00,,,-99.99,open2300 version1.11,2014-02-28 11:00:00,
2014-02-28 06:05:00,-7.8,-15.9,30.13,WNW,292,0.0,0.0,67,0.00,,,-99.99,open2300 version1.11,2014-02-28 11:05:00,
2014-02-28 06:10:00,-7.8,-15.9,30.13,WNW,292,0.0,0.0,67,0.00,,,-99.99,open2300 version1.11,2014-02-28 11:10:00,
2014-02-28 06:15:00,-7.8,-15.9,30.14,WNW,292,0.0,0.0,67,0.00,,,-99.99,open2300 version1.11,2014-02-28 11:15:00,
2014-02-28 06:20:00,-7.8,-15.9,30.14,WNW,292,0.0,0.0,67,0.00,,,-99.99,open2300 version1.11,2014-02-28 11:20:00,
2014-02-28 06:25:00,-7.8,-15.9,30.14,WNW,292,0.0,0.0,67,0.00,,,-99.99,open2300 version1.11,2014-02-28 11:25:00,
2014-02-28 06:30:00,-7.8,-15.9,30.14,WNW,292,0.0,0.0,67,0.00,,,-99.99,open2300 version1.11,2014-02-28 11:30:00,
2014-02-28 06:40:00,-7.8,-15.9,30.14,WNW,292,0.0,0.0,67,0.00,,,-99.99,open2300 version1.11,2014-02-28 11:40:00,
2014-02-28 06:45:00,-7.8,-15.9,30.15,WNW,292,0.0,0.0,67,0.00,,,-99.99,open2300 version1.11,2014-02-28 11:45:00,
2014-02-28 06:50:00,-7.8,-15.9,30.15,WNW,292,0.0,0.0,67,0.00,,,-99.99,open2300 version1.11,2014-02-28 11:50:00,
2014-02-28 06:55:00,-7.8,-15.9,30.15,WNW,292,0.0,0.0,67,0.00,,,-99.99,open2300 version1.11,2014-02-28 11:55:00,
2014-02-28 07:00:00,-7.8,-15.9,30.15,WNW,292,0.0,0.0,67,0.00,,,-99.99,open2300 version1.11,2014-02-28 12:00:00,
2014-02-28 07:05:00,-7.8,-15.9,30.15,WNW,292,0.0,0.0,67,0.00,,,-99.99,open2300 version1.11,2014-02-28 12:05:00,
2014-02-28 07:15:00,-7.8,-15.9,30.16,WNW,292,0.0,0.0,67,0.00,,,-99.99,open2300 version1.11,2014-02-28 12:15:00,
2014-02-28 07:20:00,-7.4,-15.6,30.16,WNW,292,0.0,0.0,67,0.00,,,-99.99,open2300 version1.11,2014-02-28 12:20:00,
2014-02-28 07:25:00,-7.4,-15.6,30.16,WNW,292,0.0,0.0,67,0.00,,,-99.99,open2300 version1.11,2014-02-28 12:25:00,
2014-02-28 07:30:00,-7.2,-15.1,30.16,WNW,292,0.0,0.0,68,0.00,,,-99.99,open2300 version1.11,2014-02-28 12:30:00,
2014-02-28 07:35:00,-7.1,-14.9,30.16,WNW,292,0.0,0.0,68,0.00,,,-99.99,open2300 version1.11,2014-02-28 12:35:00,
2014-02-28 07:40:00,-6.7,-14.6,30.16,WNW,292,0.0,0.0,68,0.00,,,-99.99,open2300 version1.11,2014-02-28 12:40:00,
2014-02-28 07:50:00,-5.6,-13.6,30.16,WNW,292,0.0,0.0,68,0.00,,,-99.99,open2300 version1.11,2014-02-28 12:50:00,
2014-02-28 07:55:00,-5.1,-13.1,30.16,WNW,292,0.0,0.0,68,0.00,,,-99.99,open2300 version1.11,2014-02-28 12:55:00,
2014-02-28 08:00:00,-4.4,-12.3,30.17,WNW,292,0.0,0.0,68,0.00,,,-99.99,open2300 version1.11,2014-02-28 13:00:00,
2014-02-28 08:05:00,-3.6,-11.7,30.17,East,90,0.1,0.9,68,0.00,,,-99.99,open2300 version1.11,2014-02-28 13:05:00,
2014-02-28 08:10:00,-2.9,-10.9,30.17,ESE,106,0.3,2.2,68,0.00,,,-99.99,open2300 version1.11,2014-02-28 13:10:00,
2014-02-28 08:15:00,-2.4,-10.4,30.16,ESE,112,0.1,0.7,68,0.00,,,-99.99,open2300 version1.11,2014-02-28 13:15:00,
2014-02-28 08:20:00,-1.7,-10.1,30.16,ESE,103,0.5,2.2,67,0.00,,,-99.99,open2300 version1.11,2014-02-28 13:20:00,
2014-02-28 08:25:00,-1.1,-9.6,30.16,East,94,0.1,0.7,67,0.00,,,-99.99,open2300 version1.11,2014-02-28 13:25:00,
2014-02-28 08:30:00,-0.6,-9.4,30.16,East,93,0.1,1.1,66,0.00,,,-99.99,open2300 version1.11,2014-02-28 13:30:00,
2014-02-28 08:35:00,-0.2,-9.0,30.17,ESE,103,0.2,1.1,66,0.00,,,-99.99,open2300 version1.11,2014-02-28 13:35:00,
2014-02-28 08:45:00,0.7,-8.5,30.16,East,99,0.2,1.6,65,0.00,,,-99.99,open2300 version1.11,2014-02-28 13:45:00,
2014-02-28 08:50:00,1.2,-8.0,30.16,ESE,112,0.4,1.6,65,0.00,,,-99.99,open2300 version1.11,2014-02-28 13:50:00,
2014-02-28 08:55:00,1.9,-7.2,30.17,ESE,112,0.2,1.6,65,0.00,,,-99.99,open2300 version1.11,2014-02-28 13:55:00,
2014-02-28 09:00:00,2.5,-7.0,30.17,ESE,112,0.5,2.0,64,0.00,,,-99.99,open2300 version1.11,2014-02-28 14:00:00,
2014-02-28 09:05:00,2.8,-6.7,30.16,ESE,109,1.5,3.8,64,0.00,,,-99.99,open2300 version1.11,2014-02-28 14:05:00,
2014-02-28 09:10:00,3.0,-6.8,30.16,ESE,113,0.8,3.6,63,0.00,,,-99.99,open2300 version1.11,2014-02-28 14:10:00,
2014-02-28 09:15:00,3.7,-6.1,30.16,SE,125,0.6,1.8,63,0.00,,,-99.99,open2300 version1.11,2014-02-28 14:15:00,
2014-02-28 09:20:00,4.1,-5.8,30.16,ESE,112,0.4,2.7,63,0.00,,,-99.99,open2300 version1.11,2014-02-28 14:20:00,
2014-02-28 09:25:00,4.6,-5.7,30.16,ESE,115,0.7,4.2,62,0.00,,,-99.99,open2300 version1.11,2014-02-28 14:25:00,
2014-02-28 09:30:00,5.0,-5.3,30.17,ESE,117,0.9,5.1,62,0.00,,,-99.99,open2300 version1.11,2014-02-28 14:30:00,
2014-02-28 09:35:00,5.9,-4.4,30.17,ESE,120,1.1,4.5,62,0.00,,,-99.99,open2300 version1.11,2014-02-28 14:35:00,
2014-02-28 09:45:00,6.6,-4.4,30.18,SE,127,1.3,6.3,60,0.00,,,-99.99,open2300 version1.11,2014-02-28 14:45:00,
2014-02-28 09:50:00,7.2,-3.9,30.18,SE,126,1.8,6.0,60,0.00,,,-99.99,open2300 version1.11,2014-02-28 14:50:00,
2014-02-28 09:55:00,7.5,-3.9,30.18,SE,136,2.2,6.7,59,0.00,,,-99.99,open2300 version1.11,2014-02-28 14:55:00,
2014-02-28 10:00:00,8.2,-3.3,30.17,SE,135,1.4,8.3,59,0.00,,,-99.99,open2300 version1.11,2014-02-28 15:00:00,
2014-02-28 10:10:00,9.1,-2.8,30.17,ESE,115,1.5,5.1,58,0.00,,,-99.99,open2300 version1.11,2014-02-28 15:10:00,
2014-02-28 10:15:00,9.3,-3.0,30.17,SE,130,2.1,6.3,57,0.00,,,-99.99,open2300 version1.11,2014-02-28 15:15:00,
2014-02-28 10:20:00,9.5,-3.2,30.17,ESE,108,2.3,6.3,56,0.00,,,-99.99,open2300 version1.11,2014-02-28 15:20:00,
2014-02-28 10:25:00,9.7,-3.0,30.17,ESE,113,2.3,6.7,56,0.00,,,-99.99,open2300 version1.11,2014-02-28 15:25:00,
2014-02-28 10:30:00,9.7,-3.0,30.17,SE,135,2.2,13.2,56,0.00,,,-99.99,open2300 version1.11,2014-02-28 15:30:00,
2014-02-28 10:40:00,10.6,-2.5,30.17,SE,135,2.8,7.2,55,0.00,,,-99.99,open2300 version1.11,2014-02-28 15:40:00,
2014-02-28 10:50:00,11.8,-1.4,30.17,SE,138,2.3,7.2,55,0.00,,,-99.99,open2300 version1.11,2014-02-28 15:50:00,
2014-02-28 10:55:00,12.2,-1.4,30.16,ESE,121,2.8,8.7,54,0.00,,,-99.99,open2300 version1.11,2014-02-28 15:55:00,
2014-02-28 11:00:00,12.2,-1.4,30.18,SSE,162,1.3,7.6,54,0.00,,,-99.99,open2300 version1.11,2014-02-28 16:00:00,
2014-02-28 11:05:00,12.6,-1.1,30.18,ESE,107,1.8,9.4,54,0.00,,,-99.99,open2300 version1.11,2014-02-28 16:05:00,
2014-02-28 11:15:00,12.9,-1.1,30.17,East,93,1.8,6.0,53,0.00,,,-99.99,open2300 version1.11,2014-02-28 16:15:00,
2014-02-28 11:20:00,13.3,-0.8,30.17,SSE,152,1.8,6.3,53,0.00,,,-99.99,open2300 version1.11,2014-02-28 16:20:00,
2014-02-28 11:25:00,14.2,0.1,30.17,ESE,120,1.9,7.6,53,0.00,,,-99.99,open2300 version1.11,2014-02-28 16:25:00,
2014-02-28 11:30:00,14.5,0.0,30.17,SE,130,3.1,11.4,52,0.00,,,-99.99,open2300 version1.11,2014-02-28 16:30:00,
2014-02-28 11:35:00,14.7,-0.2,30.17,East,98,2.0,6.7,51,0.00,,,-99.99,open2300 version1.11,2014-02-28 16:35:00,
2014-02-28 11:40:00,14.9,0.4,30.17,SE,131,2.1,10.5,52,0.00,,,-99.99,open2300 version1.11,2014-02-28 16:40:00,
2014-02-28 11:45:00,15.4,0.9,30.17,ESE,122,1.0,5.6,52,0.00,,,-99.99,open2300 version1.11,2014-02-28 16:45:00,
2014-02-28 11:50:00,15.8,1.3,30.17,SSE,159,1.9,7.2,52,0.00,,,-99.99,open2300 version1.11,2014-02-28 16:50:00,
2014-02-28 11:55:00,16.2,1.6,30.17,South,172,2.6,6.9,52,0.00,,,-99.99,open2300 version1.11,2014-02-28 16:55:00,
2014-02-28 12:05:00,16.5,1.5,30.16,East,93,0.9,4.9,51,0.00,,,-99.99,open2300 version1.11,2014-02-28 17:05:00,
2014-02-28 12:15:00,16.9,1.9,30.16,ESE,118,1.2,7.4,51,0.00,,,-99.99,open2300 version1.11,2014-02-28 17:15:00,
2014-02-28 12:20:00,16.9,2.2,30.16,SSE,159,1.4,6.3,52,0.00,,,-99.99,open2300 version1.11,2014-02-28 17:20:00,
2014-02-28 12:25:00,17.2,2.2,30.16,SSE,149,2.9,8.9,51,0.00,,,-99.99,open2300 version1.11,2014-02-28 17:25:00,
2014-02-28 12:30:00,17.2,2.6,30.16,SSE,156,1.9,8.7,52,0.00,,,-99.99,open2300 version1.11,2014-02-28 17:30:00,
2014-02-28 12:35:00,17.2,2.6,30.15,SSE,156,1.8,8.1,52,0.00,,,-99.99,open2300 version1.11,2014-02-28 17:35:00,
2014-02-28 12:40:00,17.4,2.7,30.15,SE,126,3.3,12.3,52,0.00,,,-99.99,open2300 version1.11,2014-02-28 17:40:00,
2014-02-28 12:45:00,17.2,2.6,30.15,SE,140,4.0,13.0,52,0.00,,,-99.99,open2300 version1.11,2014-02-28 17:45:00,
2014-02-28 12:50:00,17.2,2.6,30.15,ESE,116,3.8,9.2,52,0.00,,,-99.99,open2300 version1.11,2014-02-28 17:50:00,
2014-02-28 12:55:00,17.4,2.7,30.15,East,98,0.9,5.6,52,0.00,,,-99.99,open2300 version1.11,2014-02-28 17:55:00,
2014-02-28 13:00:00,17.4,2.7,30.15,ESE,118,3.4,9.6,52,0.00,,,-99.99,open2300 version1.11,2014-02-28 18:00:00,
2014-02-28 13:05:00,17.2,2.6,30.15,SE,125,2.4,11.4,52,0.00,,,-99.99,open2300 version1.11,2014-02-28 18:05:00,
2014-02-28 13:10:00,17.4,3.1,30.15,SE,142,2.9,11.9,53,0.00,,,-99.99,open2300 version1.11,2014-02-28 18:10:00,
2014-02-28 13:20:00,17.4,2.7,30.14,ESE,113,3.4,10.1,52,0.00,,,-99.99,open2300 version1.11,2014-02-28 18:20:00,
2014-02-28 13:25:00,17.2,3.0,30.14,SE,146,2.2,10.7,53,0.00,,,-99.99,open2300 version1.11,2014-02-28 18:25:00,
2014-02-28 13:30:00,17.4,3.1,30.13,SSE,155,3.2,12.3,53,0.00,,,-99.99,open2300 version1.11,2014-02-28 18:30:00,
2014-02-28 13:35:00,17.8,3.5,30.12,SE,142,1.7,6.5,53,0.00,,,-99.99,open2300 version1.11,2014-02-28 18:35:00,
2014-02-28 13:40:00,17.8,3.5,30.12,SSE,163,1.4,6.7,53,0.00,,,-99.99,open2300 version1.11,2014-02-28 18:40:00,
2014-02-28 13:50:00,18.3,4.0,30.12,SSE,156,1.7,6.9,53,0.00,,,-99.99,open2300 version1.11,2014-02-28 18:50:00,
2014-02-28 13:55:00,18.5,4.1,30.12,SSE,165,0.8,5.6,53,0.00,,,-99.99,open2300 version1.11,2014-02-28 18:55:00,
2014-02-28 14:00:00,18.5,3.7,30.12,SSE,153,2.1,7.2,52,0.00,,,-99.99,open2300 version1.11,2014-02-28 19:00:00,
2014-02-28 14:05:00,18.5,3.7,30.11,SSE,147,0.9,3.6,52,0.00,,,-99.99,open2300 version1.11,2014-02-28 19:05:00,
2014-02-28 14:10:00,18.5,3.7,30.11,SE,133,2.1,8.3,52,0.00,,,-99.99,open2300 version1.11,2014-02-28 19:10:00,
2014-02-28 14:20:00,18.5,3.7,30.10,SE,133,5.1,13.2,52,0.00,,,-99.99,open2300 version1.11,2014-02-28 19:20:00,
2014-02-28 14:25:00,18.3,3.6,30.10,SE,127,1.9,7.8,52,0.00,,,-99.99,open2300 version1.11,2014-02-28 19:25:00,
2014-02-28 14:30:00,18.3,3.6,30.10,SE,129,1.0,6.3,52,0.00,,,-99.99,open2300 version1.11,2014-02-28 19:30:00,
2014-02-28 14:35:00,18.5,3.7,30.10,SSE,156,1.7,5.4,52,0.00,,,-99.99,open2300 version1.11,2014-02-28 19:35:00,
2014-02-28 14:40:00,18.5,3.3,30.09,SE,129,3.2,8.3,51,0.00,,,-99.99,open2300 version1.11,2014-02-28 19:40:00,
2014-02-28 14:45:00,18.3,3.2,30.09,ESE,119,3.7,11.4,51,0.00,,,-99.99,open2300 version1.11,2014-02-28 19:45:00,
2014-02-28 14:50:00,18.3,3.2,30.09,SE,128,3.1,9.2,51,0.00,,,-99.99,open2300 version1.11,2014-02-28 19:50:00,
2014-02-28 14:55:00,18.3,3.2,30.09,SE,128,1.6,8.7,51,0.00,,,-99.99,open2300 version1.11,2014-02-28 19:55:00,
2014-02-28 15:00:00,18.3,3.2,30.08,SE,140,2.9,7.8,51,0.00,,,-99.99,open2300 version1.11,2014-02-28 20:00:00,
2014-02-28 15:05:00,18.3,3.2,30.08,ESE,122,2.6,12.8,51,0.00,,,-99.99,open2300 version1.11,2014-02-28 20:05:00,
2014-02-28 15:10:00,18.3,3.2,30.08,West,270,1.4,6.5,51,0.00,,,-99.99,open2300 version1.11,2014-02-28 20:10:00,
2014-02-28 15:15:00,18.3,3.2,30.08,SSE,159,1.6,11.2,51,0.00,,,-99.99,open2300 version1.11,2014-02-28 20:15:00,
2014-02-28 15:25:00,18.3,3.2,30.08,SE,129,0.5,4.9,51,0.00,,,-99.99,open2300 version1.11,2014-02-28 20:25:00,
2014-02-28 15:30:00,18.3,3.6,30.08,SE,131,0.8,4.5,52,0.00,,,-99.99,open2300 version1.11,2014-02-28 20:30:00,
2014-02-28 15:35:00,18.5,3.7,30.07,SSE,153,2.5,10.1,52,0.00,,,-99.99,open2300 version1.11,2014-02-28 20:35:00,
2014-02-28 15:40:00,18.3,3.6,30.07,SE,130,2.2,7.6,52,0.00,,,-99.99,open2300 version1.11,2014-02-28 20:40:00,
2014-02-28 15:45:00,18.3,3.6,30.06,SE,141,1.4,7.2,52,0.00,,,-99.99,open2300 version1.11,2014-02-28 20:45:00,
2014-02-28 15:50:00,18.3,3.6,30.06,SE,146,0.6,6.0,52,0.00,,,-99.99,open2300 version1.11,2014-02-28 20:50:00,
2014-02-28 15:55:00,18.3,3.6,30.07,SE,137,2.9,12.5,52,0.00,,,-99.99,open2300 version1.11,2014-02-28 20:55:00,
2014-02-28 16:00:00,18.3,4.0,30.05,ESE,123,0.3,4.7,53,0.00,,,-99.99,open2300 version1.11,2014-02-28 21:00:00,
2014-02-28 16:10:00,18.9,4.4,30.05,South,172,0.8,5.4,53,0.00,,,-99.99,open2300 version1.11,2014-02-28 21:10:00,
2014-02-28 16:15:00,18.9,4.0,30.06,SE,130,2.1,7.4,52,0.00,,,-99.99,open2300 version1.11,2014-02-28 21:15:00,
2014-02-28 16:20:00,19.0,4.6,30.05,South,182,1.5,7.8,53,0.00,,,-99.99,open2300 version1.11,2014-02-28 21:20:00,
2014-02-28 16:30:00,19.0,4.6,30.04,SE,135,0.4,6.7,53,0.00,,,-99.99,open2300 version1.11,2014-02-28 21:30:00,
2014-02-28 16:35:00,19.2,4.8,30.04,SE,124,1.8,10.7,53,0.00,,,-99.99,open2300 version1.11,2014-02-28 21:35:00,
2014-02-28 16:40:00,19.0,4.2,30.04,SE,135,3.5,11.0,52,0.00,,,-99.99,open2300 version1.11,2014-02-28 21:40:00,
2014-02-28 16:45:00,18.9,4.0,30.04,ESE,105,0.3,3.1,52,0.00,,,-99.99,open2300 version1.11,2014-02-28 21:45:00,
2014-02-28 16:55:00,18.7,4.3,30.02,SE,139,2.4,8.3,53,0.00,,,-99.99,open2300 version1.11,2014-02-28 21:55:00,
2014-02-28 17:00:00,18.5,4.1,30.03,ESE,117,2.8,9.6,53,0.00,,,-99.99,open2300 version1.11,2014-02-28 22:00:00,
2014-02-28 17:05:00,18.3,4.0,30.02,SE,126,1.2,6.3,53,0.00,,,-99.99,open2300 version1.11,2014-02-28 22:05:00,
2014-02-28 17:10:00,18.3,4.0,30.03,SE,144,3.1,11.6,53,0.00,,,-99.99,open2300 version1.11,2014-02-28 22:10:00,
2014-02-28 17:15:00,18.3,4.0,30.03,SE,144,1.6,6.9,53,0.00,,,-99.99,open2300 version1.11,2014-02-28 22:15:00,
2014-02-28 17:20:00,18.3,4.0,30.03,SE,136,2.2,9.4,53,0.00,,,-99.99,open2300 version1.11,2014-02-28 22:20:00,
2014-02-28 17:30:00,18.0,3.6,30.03,ESE,118,2.5,6.7,53,0.00,,,-99.99,open2300 version1.11,2014-02-28 22:30:00,
2014-02-28 17:35:00,17.8,3.5,30.03,ESE,116,1.7,6.0,53,0.00,,,-99.99,open2300 version1.11,2014-02-28 22:35:00,
2014-02-28 17:45:00,17.4,3.5,30.03,ESE,123,1.2,5.6,54,0.00,,,-99.99,open2300 version1.11,2014-02-28 22:45:00,
2014-02-28 17:50:00,17.4,3.5,30.03,SSE,147,1.7,8.1,54,0.00,,,-99.99,open2300 version1.11,2014-02-28 22:50:00,
2014-02-28 17:55:00,17.2,3.4,30.03,SE,130,1.4,7.6,54,0.00,,,-99.99,open2300 version1.11,2014-02-28 22:55:00,
2014-02-28 18:05:00,17.2,3.8,30.03,ESE,122,3.0,9.6,55,0.00,,,-99.99,open2300 version1.11,2014-02-28 23:05:00,
2014-02-28 18:10:00,16.9,3.4,30.03,SE,125,1.3,5.1,55,0.00,,,-99.99,open2300 version1.11,2014-02-28 23:10:00,
2014-02-28 18:15:00,16.9,3.4,30.03,SE,134,3.4,10.7,55,0.00,,,-99.99,open2300 version1.11,2014-02-28 23:15:00,
2014-02-28 18:20:00,16.7,3.6,30.03,SSE,151,0.8,4.9,56,0.00,,,-99.99,open2300 version1.11,2014-02-28 23:20:00,
2014-02-28 18:30:00,16.5,3.5,30.02,ESE,115,1.9,5.4,56,0.00,,,-99.99,open2300 version1.11,2014-02-28 23:30:00,
2014-02-28 18:35:00,16.3,3.3,30.01,ESE,120,2.9,8.7,56,0.00,,,-99.99,open2300 version1.11,2014-02-28 23:35:00,
2014-02-28 18:45:00,16.3,3.7,30.01,SE,141,1.8,7.4,57,0.00,,,-99.99,open2300 version1.11,2014-02-28 23:45:00,
2014-02-28 18:50:00,16.3,3.7,30.01,SE,128,2.0,7.8,57,0.00,,,-99.99,open2300 version1.11,2014-02-28 23:50:00,
2014-02-28 18:55:00,16.3,3.7,30.01,SE,133,2.5,7.6,57,0.00,,,-99.99,open2300 version1.11,2014-02-28 23:55:00,
2014-02-28 19:05:00,16.2,3.9,30.02,SE,136,1.0,7.8,58,0.00,,,-99.99,open2300 version1.11,2014-03-01 00:05:00,
2014-02-28 19:10:00,16.2,3.9,30.02,ESE,119,2.1,5.8,58,0.00,,,-99.99,open2300 version1.11,2014-03-01 00:10:00,
2014-02-28 19:15:00,16.3,4.0,30.02,SE,132,1.3,5.8,58,0.00,,,-99.99,open2300 version1.11,2014-03-01 00:15:00,
2014-02-28 19:20:00,16.2,3.9,30.02,SE,124,0.8,5.8,58,0.00,,,-99.99,open2300 version1.11,2014-03-01 00:20:00,
2014-02-28 19:25:00,16.2,3.9,30.01,SE,139,1.4,8.3,58,0.00,,,-99.99,open2300 version1.11,2014-03-01 00:25:00,
2014-02-28 19:35:00,16.2,4.2,30.01,SE,125,0.6,4.5,59,0.00,,,-99.99,open2300 version1.11,2014-03-01 00:35:00,
2014-02-28 19:40:00,16.2,4.2,30.01,ESE,120,1.3,6.0,59,0.00,,,-99.99,open2300 version1.11,2014-03-01 00:40:00,
2014-02-28 19:45:00,16.2,4.2,30.01,SE,130,1.4,5.1,59,0.00,,,-99.99,open2300 version1.11,2014-03-01 00:45:00,
2014-02-28 19:50:00,16.2,4.2,30.01,ESE,104,1.0,3.8,59,0.00,,,-99.99,open2300 version1.11,2014-03-01 00:50:00,
2014-02-28 19:55:00,16.0,4.1,30.00,SE,131,1.6,5.1,59,0.00,,,-99.99,open2300 version1.11,2014-03-01 00:55:00,
2014-02-28 20:05:00,15.8,4.3,30.00,SE,139,1.7,6.7,60,0.00,,,-99.99,open2300 version1.11,2014-03-01 01:05:00,
2014-02-28 20:10:00,15.8,4.3,30.00,SE,126,1.4,6.5,60,0.00,,,-99.99,open2300 version1.11,2014-03-01 01:10:00,
2014-02-28 20:20:00,15.6,4.1,30.00,SE,126,0.7,4.5,60,0.00,,,-99.99,open2300 version1.11,2014-03-01 01:20:00,
2014-02-28 20:25:00,15.6,4.1,29.99,SE,134,1.8,6.0,60,0.00,,,-99.99,open2300 version1.11,2014-03-01 01:25:00,
2014-02-28 20:35:00,15.6,4.1,30.00,SE,135,1.7,7.8,60,0.00,,,-99.99,open2300 version1.11,2014-03-01 01:35:00,
2014-02-28 20:40:00,15.8,4.3,29.99,SE,135,0.3,2.2,60,0.00,,,-99.99,open2300 version1.11,2014-03-01 01:40:00,
2014-02-28 20:45:00,15.8,4.3,30.00,ESE,119,0.6,4.5,60,0.00,,,-99.99,open2300 version1.11,2014-03-01 01:45:00,
2014-02-28 20:50:00,15.8,4.3,30.00,ESE,106,0.9,3.4,60,0.00,,,-99.99,open2300 version1.11,2014-03-01 01:50:00,
2014-02-28 21:00:00,15.8,4.6,29.99,SE,125,0.8,3.8,61,0.00,,,-99.99,open2300 version1.11,2014-03-01 02:00:00,
2014-02-28 21:10:00,15.8,4.6,29.99,SE,129,1.0,6.0,61,0.00,,,-99.99,open2300 version1.11,2014-03-01 02:10:00,
2014-02-28 21:15:00,16.0,5.1,29.99,SE,127,1.4,4.9,62,0.00,,,-99.99,open2300 version1.11,2014-03-01 02:15:00,
2014-02-28 21:20:00,16.0,5.1,29.99,SE,130,1.8,6.9,62,0.00,,,-99.99,open2300 version1.11,2014-03-01 02:20:00,
2014-02-28 21:30:00,15.8,5.0,29.99,SE,126,1.3,6.0,62,0.00,,,-99.99,open2300 version1.11,2014-03-01 02:30:00,
2014-02-28 21:35:00,15.8,5.0,29.98,SE,128,1.3,4.5,62,0.00,,,-99.99,open2300 version1.11,2014-03-01 02:35:00,
2014-02-28 21:40:00,15.8,5.0,29.98,SE,129,0.8,9.2,62,0.00,,,-99.99,open2300 version1.11,2014-03-01 02:40:00,
2014-02-28 21:45:00,15.6,4.8,29.98,SE,131,2.4,11.9,62,0.00,,,-99.99,open2300 version1.11,2014-03-01 02:45:00,
2014-02-28 21:50:00,15.6,4.8,29.98,SE,126,2.2,7.8,62,0.00,,,-99.99,open2300 version1.11,2014-03-01 02:50:00,
2014-02-28 21:55:00,15.6,4.8,29.98,SE,128,1.5,6.5,62,0.00,,,-99.99,open2300 version1.11,2014-03-01 02:55:00,
2014-02-28 22:10:00,15.8,5.3,29.98,SE,135,2.6,12.1,63,0.00,,,-99.99,open2300 version1.11,2014-03-01 03:10:00,
2014-02-28 22:15:00,15.8,5.3,29.98,ESE,120,2.7,9.8,63,0.00,,,-99.99,open2300 version1.11,2014-03-01 03:15:00,
2014-02-28 22:20:00,15.8,5.3,29.98,SE,125,2.0,10.3,63,0.00,,,-99.99,open2300 version1.11,2014-03-01 03:20:00,
2014-02-28 22:25:00,15.8,5.7,29.98,ESE,114,3.0,6.9,64,0.00,,,-99.99,open2300 version1.11,2014-03-01 03:25:00,
2014-02-28 22:35:00,15.6,5.5,29.98,SE,135,3.5,10.7,64,0.00,,,-99.99,open2300 version1.11,2014-03-01 03:35:00,
2014-02-28 22:40:00,15.8,5.7,29.97,SE,129,1.9,7.8,64,0.00,,,-99.99,open2300 version1.11,2014-03-01 03:40:00,
2014-02-28 22:45:00,15.8,5.7,29.97,SE,128,2.0,8.9,64,0.00,,,-99.99,open2300 version1.11,2014-03-01 03:45:00,
2014-02-28 22:50:00,15.6,5.8,29.97,ESE,120,1.7,7.8,65,0.00,,,-99.99,open2300 version1.11,2014-03-01 03:50:00,
2014-02-28 22:55:00,15.6,5.8,29.97,ESE,115,2.1,10.1,65,0.00,,,-99.99,open2300 version1.11,2014-03-01 03:55:00,
2014-02-28 23:05:00,15.6,5.8,29.97,SE,125,0.8,6.3,65,0.00,,,-99.99,open2300 version1.11,2014-03-01 04:05:00,
2014-02-28 23:10:00,15.6,5.8,29.97,ESE,123,1.5,7.4,65,0.00,,,-99.99,open2300 version1.11,2014-03-01 04:10:00,
2014-02-28 23:15:00,15.6,5.8,29.96,SE,135,0.9,5.6,65,0.00,,,-99.99,open2300 version1.11,2014-03-01 04:15:00,
2014-02-28 23:20:00,15.6,5.8,29.96,ESE,113,1.2,6.0,65,0.00,,,-99.99,open2300 version1.11,2014-03-01 04:20:00,
2014-02-28 23:25:00,15.6,5.8,29.96,SE,128,1.2,6.9,65,0.00,,,-99.99,open2300 version1.11,2014-03-01 04:25:00,
2014-02-28 23:30:00,15.6,6.2,29.96,ESE,112,0.8,6.3,66,0.00,,,-99.99,open2300 version1.11,2014-03-01 04:30:00,
2014-02-28 23:40:00,15.6,6.2,29.96,ESE,106,0.3,2.7,66,0.00,,,-99.99,open2300 version1.11,2014-03-01 04:40:00,
2014-02-28 23:45:00,15.6,6.2,29.96,SE,133,1.1,6.0,66,0.00,,,-99.99,open2300 version1.11,2014-03-01 04:45:00,
2014-02-28 23:50:00,15.6,6.2,29.95,SE,136,0.3,2.2,66,0.00,,,-99.99,open2300 version1.11,2014-03-01 04:50:00,